• In Netherlands
  • List of Countries
  • For 7 days
  • Water Temperature
  • Satellite Maps
  • Weather Map
  • Weather Widgets
  • user-avatar
    Login

    Hourly Weather Konstantyna

    Today, 30 March, Thursday

    Time Temperature Precipitation Wind Pressure Humidity
    00:00 +5°C° 0 mm 1 mps 715 mmHg 92%
    01:00 +5°C° 0 mm 1 mps 715 mmHg 91%
    02:00 +5°C° 0 mm 1 mps 715 mmHg 89%
    03:00 +5°C° 0 mm 1 mps 715 mmHg 88%
    04:00 +5°C° 0 mm 1 mps 715 mmHg 86%
    05:00 +5°C° 0 mm 1 mps 715 mmHg 84%
    06:00 +6°C° 0 mm 1 mps 715 mmHg 81%
    07:00 +9°C° 0 mm 1 mps 716 mmHg 68%
    08:00 +13°C° 0 mm 1 mps 716 mmHg 56%
    09:00 +18°C° 0 mm 1 mps 717 mmHg 43%
    10:00 +19°C° 0 mm 1 mps 717 mmHg 38%
    11:00 +20°C° 0 mm 1 mps 717 mmHg 34%
    12:00 +20°C° 0 mm 2 mps 717 mmHg 29%
    13:00 +20°C° 0 mm 2 mps 717 mmHg 31%
    14:00 +20°C° 0 mm 2 mps 716 mmHg 32%
    15:00 +20°C° 0 mm 2 mps 716 mmHg 33%
    16:00 +17°C° 0 mm 2 mps 716 mmHg 47%
    17:00 +14°C° 0 mm 2 mps 715 mmHg 61%
    18:00 +10°C° 0 mm 2 mps 715 mmHg 75%
    19:00 +10°C° 0 mm 1 mps 715 mmHg 80%
    20:00 +9°C° 0 mm 1 mps 715 mmHg 85%
    21:00 +8°C° 0 mm 1 mps 715 mmHg 90%
    22:00 +8°C° 0 mm 1 mps 715 mmHg 89%
    23:00 +8°C° 0 mm 1 mps 715 mmHg 87%

    Tomorrow, 31 March, Friday

    Time Temperature Precipitation Wind Pressure Humidity
    00:00 +7°C° 0 mm 2 mps 715 mmHg 85%
    01:00 +7°C° 0 mm 2 mps 715 mmHg 82%
    02:00 +7°C° 0 mm 2 mps 714 mmHg 78%
    03:00 +7°C° 0 mm 2 mps 714 mmHg 75%
    04:00 +7°C° 0 mm 2 mps 714 mmHg 69%
    05:00 +7°C° 0 mm 2 mps 714 mmHg 64%
    06:00 +8°C° 0 mm 2 mps 714 mmHg 58%
    07:00 +12°C° 0 mm 2 mps 714 mmHg 48%
    08:00 +16°C° 0 mm 2 mps 715 mmHg 38%
    09:00 +20°C° 0 mm 3 mps 715 mmHg 27%
    10:00 +22°C° 0 mm 3 mps 715 mmHg 24%
    11:00 +25°C° 0 mm 3 mps 715 mmHg 21%
    12:00 +26°C° 0 mm 3 mps 715 mmHg 17%
    13:00 +26°C° 0 mm 3 mps 714 mmHg 19%
    14:00 +26°C° 0 mm 3 mps 714 mmHg 21%
    15:00 +25°C° 0 mm 3 mps 713 mmHg 23%
    16:00 +21°C° 0 mm 3 mps 712 mmHg 33%
    17:00 +18°C° 0 mm 2 mps 712 mmHg 44%
    18:00 +14°C° 0 mm 1 mps 711 mmHg 55%
    19:00 +14°C° 0 mm 1 mps 711 mmHg 54%
    20:00 +13°C° 0 mm 1 mps 712 mmHg 54%
    21:00 +12°C° 0 mm 1 mps 712 mmHg 54%
    22:00 +12°C° 0 mm 1 mps 711 mmHg 51%
    23:00 +12°C° 0 mm 2 mps 711 mmHg 48%

    Day after tomorrow, 1 April, Saturday

    Time Temperature Precipitation Wind Pressure Humidity
    00:00 +10°C° 0 mm 2 mps 710 mmHg 45%
    01:00 +10°C° 0 mm 2 mps 710 mmHg 45%
    02:00 +10°C° 0 mm 2 mps 710 mmHg 44%
    03:00 +10°C° 0 mm 2 mps 709 mmHg 43%
    04:00 +10°C° 0 mm 2 mps 709 mmHg 44%
    05:00 +10°C° 0 mm 2 mps 709 mmHg 44%
    06:00 +10°C° 0 mm 2 mps 709 mmHg 45%
    07:00 +14°C° 0 mm 2 mps 709 mmHg 40%
    08:00 +17°C° 0 mm 2 mps 710 mmHg 34%
    09:00 +21°C° 0 mm 3 mps 710 mmHg 28%
    10:00 +21°C° 0 mm 4 mps 710 mmHg 28%
    11:00 +22°C° 0 mm 5 mps 710 mmHg 28%
    12:00 +22°C° 0 mm 6 mps 709 mmHg 28%
    13:00 +20°C° 0.9 mm 5 mps 709 mmHg 41%
    14:00 +17°C° 0.9 mm 5 mps 708 mmHg 54%
    15:00 +14°C° 0.9 mm 4 mps 708 mmHg 68%
    16:00 +13°C° 0.8 mm 4 mps 708 mmHg 71%
    17:00 +11°C° 0.8 mm 3 mps 708 mmHg 74%
    18:00 +9°C° 0.8 mm 3 mps 708 mmHg 77%
    19:00 +8°C° 0.1 mm 2 mps 708 mmHg 80%
    20:00 +6°C° 0.1 mm 2 mps 708 mmHg 84%
    21:00 +5°C° 0.1 mm 2 mps 709 mmHg 87%
    22:00 +5°C° 0 mm 2 mps 708 mmHg 88%
    23:00 +5°C° 0 mm 2 mps 708 mmHg 88%

    2 April, Sunday

    Time Temperature Precipitation Wind Pressure Humidity
    00:00 +4°C° 0 mm 3 mps 708 mmHg 88%
    01:00 +4°C° 0.1 mm 3 mps 708 mmHg 89%
    02:00 +4°C° 0.1 mm 3 mps 707 mmHg 90%
    03:00 +4°C° 0.1 mm 3 mps 707 mmHg 90%
    04:00 +4°C° 0.1 mm 3 mps 707 mmHg 90%
    05:00 +4°C° 0.1 mm 3 mps 707 mmHg 89%
    06:00 +4°C° 0.1 mm 3 mps 707 mmHg 88%
    07:00 +8°C° 0.1 mm 3 mps 708 mmHg 76%
    08:00 +10°C° 0.1 mm 4 mps 708 mmHg 65%
    09:00 +13°C° 0.1 mm 5 mps 709 mmHg 53%
    10:00 +13°C° 0.2 mm 5 mps 708 mmHg 50%
    11:00 +14°C° 0.2 mm 6 mps 708 mmHg 47%
    12:00 +15°C° 0.2 mm 6 mps 708 mmHg 43%
    13:00 +15°C° 0.1 mm 6 mps 708 mmHg 44%
    14:00 +15°C° 0.1 mm 6 mps 708 mmHg 45%
    15:00 +14°C° 0.1 mm 6 mps 707 mmHg 46%
    16:00 +13°C° 0.2 mm 6 mps 707 mmHg 53%
    17:00 +10°C° 0.2 mm 5 mps 707 mmHg 61%
    18:00 +8°C° 0.2 mm 4 mps 707 mmHg 69%
    19:00 +8°C° 0.3 mm 4 mps 707 mmHg 72%
    20:00 +7°C° 0.3 mm 4 mps 707 mmHg 76%
    21:00 +7°C° 0.3 mm 4 mps 707 mmHg 80%
    22:00 +7°C° 1 mm 4 mps 707 mmHg 83%
    23:00 +7°C° 1 mm 5 mps 707 mmHg 86%

    3 April, Monday

    Time Temperature Precipitation Wind Pressure Humidity
    00:00 +7°C° 1 mm 5 mps 707 mmHg 89%
    01:00 +7°C° 0.2 mm 5 mps 707 mmHg 90%
    02:00 +7°C° 0.2 mm 4 mps 707 mmHg 92%
    03:00 +6°C° 0.2 mm 4 mps 707 mmHg 93%
    04:00 +6°C° 0.2 mm 4 mps 708 mmHg 94%
    05:00 +6°C° 0.2 mm 4 mps 708 mmHg 95%
    06:00 +7°C° 0.2 mm 3 mps 708 mmHg 95%
    07:00 +8°C° 0 mm 4 mps 709 mmHg 85%
    08:00 +11°C° 0 mm 4 mps 710 mmHg 75%
    09:00 +13°C° 0 mm 4 mps 710 mmHg 65%
    10:00 +14°C° 0 mm 4 mps 711 mmHg 61%
    11:00 +15°C° 0 mm 5 mps 711 mmHg 57%
    12:00 +16°C° 0 mm 5 mps 711 mmHg 53%
    13:00 +16°C° 0.1 mm 5 mps 711 mmHg 54%
    14:00 +15°C° 0.1 mm 5 mps 711 mmHg 56%
    15:00 +15°C° 0.1 mm 5 mps 711 mmHg 58%
    16:00 +13°C° 0.1 mm 4 mps 711 mmHg 68%
    17:00 +11°C° 0.1 mm 3 mps 711 mmHg 78%
    18:00 +9°C° 0.1 mm 2 mps 711 mmHg 88%
    19:00 +8°C° 0 mm 2 mps 711 mmHg 91%
    20:00 +7°C° 0 mm 2 mps 712 mmHg 94%
    21:00 +6°C° 0 mm 2 mps 712 mmHg 97%
    22:00 +7°C° 0.1 mm 2 mps 712 mmHg 97%
    23:00 +8°C° 0.1 mm 2 mps 712 mmHg 97%

    4 April, Tuesday

    Time Temperature Precipitation Wind Pressure Humidity
    00:00 +8°C° 0.1 mm 2 mps 712 mmHg 96%
    01:00 +8°C° 0 mm 2 mps 712 mmHg 96%
    02:00 +7°C° 0 mm 2 mps 711 mmHg 96%
    03:00 +7°C° 0 mm 2 mps 711 mmHg 97%
    04:00 +7°C° 0 mm 2 mps 711 mmHg 97%
    05:00 +7°C° 0 mm 2 mps 712 mmHg 97%
    06:00 +9°C° 0 mm 1 mps 712 mmHg 97%
    07:00 +10°C° 0 mm 2 mps 712 mmHg 87%
    08:00 +13°C° 0 mm 2 mps 712 mmHg 77%
    09:00 +13°C° 0 mm 3 mps 713 mmHg 68%
    10:00 +16°C° 0.1 mm 3 mps 713 mmHg 62%
    11:00 +17°C° 0.1 mm 4 mps 713 mmHg 56%
    12:00 +18°C° 0.1 mm 4 mps 713 mmHg 50%
    13:00 +18°C° 0.1 mm 4 mps 712 mmHg 49%
    14:00 +17°C° 0.1 mm 5 mps 712 mmHg 48%
    15:00 +17°C° 0.1 mm 5 mps 712 mmHg 48%
    16:00 +14°C° 0 mm 4 mps 712 mmHg 58%
    17:00 +12°C° 0 mm 3 mps 712 mmHg 68%
    18:00 +10°C° 0 mm 2 mps 712 mmHg 78%
    19:00 +8°C° 0 mm 2 mps 712 mmHg 84%
    20:00 +8°C° 0 mm 1 mps 712 mmHg 89%
    21:00 +7°C° 0 mm 1 mps 712 mmHg 95%
    22:00 +7°C° 0 mm 1 mps 712 mmHg 94%
    23:00 +7°C° 0 mm 1 mps 712 mmHg 94%
    Show more